Weather History for KFAM - November, 2011

Change the Weather History Date:

Friday, November 11, 2011

  Actual Average Record
Temperature  
Mean Temperature 44 °F -  
Max Temperature 64 °F 53 °F 77 °F (2010)
Min Temperature 24 °F 36 °F 24 °F (2011)
Degree Days  
Heating Degree Days 21    
Moisture  
Dew Point 25 °F    
Average Humidity 50    
Maximum Humidity 86    
Minimum Humidity 26    
Precipitation  
Precipitation 0.00 in - - ()
Sea Level Pressure  
Sea Level Pressure 30.01 in    
Wind  
Wind Speed 6 mph (SSW)    
Max Wind Speed 18 mph    
Max Gust Speed 23 mph    
Visibility 10 miles    
Events      
Averages and records for this station are not official NWS values.
T = Trace of Precipitation, MM = Missing Value Source: NWS Daily Summary

Daily Weather History Graph

Daily Weather History Graph

Search for Another Location

Airport or City:

Trip Planner

Search our weather history database for the weather conditions in past years. The results will help you decide how hot, cold, wet, or windy it might be!

Date:

Astronomy

Nov. 11, 2011 Rise Set
Actual Time 6:37 AM CST 4:53 PM CST
Civil Twilight 6:09 AM CST 5:21 PM CST
Nautical Twilight 5:38 AM CST 5:52 PM CST
Astronomical Twilight 5:07 AM CST 6:23 PM CST
Moon 5:24 PM CST (11/11) 7:24 AM CST (11/11)
Length of Visible Light 11h 11m
Length of Day
10h 16m
Full, 99% of the Moon is Illuminated
Nov 11
Full
Nov 18
Last Quarter
Nov 25
New
Dec 2
First Quarter
Dec 10
Full

Hourly Weather History & Observations

Time (CST) Temp. Windchill Dew Point Humidity Pressure Visibility Wind Dir Wind Speed Gust Speed Precip Events Conditions
12:15 AM 26.6 °F - 19.4 °F 74% 30.16 in 10.0 mi Calm Calm - N/A   Clear
12:35 AM 26.6 °F - 19.4 °F 74% 30.15 in 10.0 mi Calm Calm - N/A   Clear
12:55 AM 28.4 °F - 19.4 °F 69% 30.15 in 10.0 mi Calm Calm - N/A   Clear
1:15 AM 26.6 °F - 19.4 °F 74% 30.15 in 10.0 mi Calm Calm - N/A   Clear
1:35 AM 26.6 °F 22.6 °F 19.4 °F 74% 30.14 in 10.0 mi SSW 3.5 mph - N/A   Clear
1:55 AM 26.6 °F - 19.4 °F 74% 30.15 in 10.0 mi Calm Calm - N/A   Clear
2:15 AM 26.6 °F - 21.2 °F 80% 30.15 in 10.0 mi Calm Calm - N/A   Clear
2:35 AM 26.6 °F - 19.4 °F 74% 30.14 in 10.0 mi Calm Calm - N/A   Clear
2:55 AM 24.8 °F - 19.4 °F 80% 30.14 in 10.0 mi Calm Calm - N/A   Clear
3:15 AM 24.8 °F - 21.2 °F 86% 30.13 in 10.0 mi Calm Calm - N/A   Clear
3:55 AM 24.8 °F - 21.2 °F 86% 30.13 in 10.0 mi Calm Calm - N/A   Clear
4:15 AM 24.8 °F - 19.4 °F 80% 30.13 in 10.0 mi Calm Calm - N/A   Clear
4:35 AM 24.8 °F - 21.2 °F 86% 30.13 in 10.0 mi Calm Calm - N/A   Clear
5:15 AM 26.6 °F 22.6 °F 19.4 °F 74% 30.11 in 10.0 mi SE 3.5 mph - N/A   Clear
5:35 AM 26.6 °F - 19.4 °F 74% 30.11 in 10.0 mi Calm Calm - N/A   Clear
6:15 AM 26.6 °F 20.0 °F 19.4 °F 74% 30.10 in 10.0 mi SSE 5.8 mph - N/A   Clear
6:35 AM 26.6 °F 22.6 °F 17.6 °F 69% 30.10 in 10.0 mi ESE 3.5 mph - N/A   Clear
6:55 AM 28.4 °F - 19.4 °F 69% 30.10 in 10.0 mi Calm Calm - N/A   Clear
7:35 AM 30.2 °F 23.4 °F 21.2 °F 69% 30.10 in 10.0 mi SSE 6.9 mph - N/A   Clear
7:55 AM 32.0 °F 25.6 °F 23.0 °F 69% 30.09 in 10.0 mi SSE 6.9 mph - N/A   Clear
8:35 AM 37.4 °F 28.9 °F 23.0 °F 56% 30.08 in 10.0 mi South 13.8 mph - N/A   Clear
8:55 AM 41.0 °F 33.9 °F 24.8 °F 53% 30.06 in 10.0 mi South 12.7 mph - N/A   Clear
9:15 AM 42.8 °F 34.8 °F 21.2 °F 42% 30.06 in 10.0 mi South 17.3 mph 21.9 mph N/A   Clear
10:15 AM 46.4 °F 40.1 °F 23.0 °F 40% 30.03 in 10.0 mi South 15.0 mph - N/A   Clear
10:35 AM 46.4 °F 40.1 °F 24.8 °F 43% 30.03 in 10.0 mi South 15.0 mph - N/A   Clear
10:55 AM 50.0 °F - 26.6 °F 40% 30.01 in 10.0 mi South 16.1 mph - N/A   Clear
11:15 AM 51.8 °F - 26.6 °F 38% 30.00 in 10.0 mi South 9.2 mph - N/A   Clear
11:35 AM 51.8 °F - 28.4 °F 41% 29.98 in 10.0 mi South 11.5 mph 18.4 mph N/A   Clear
11:55 AM 55.4 °F - 28.4 °F 36% 29.97 in 10.0 mi SSW 13.8 mph 18.4 mph N/A   Clear
12:35 PM 57.2 °F - 28.4 °F 33% 29.94 in 10.0 mi SSW 12.7 mph 20.7 mph N/A   Clear
12:55 PM 60.8 °F - 28.4 °F 29% 29.94 in 10.0 mi SW 15.0 mph - N/A   Clear
1:15 PM 62.6 °F - 30.2 °F 30% 29.92 in 10.0 mi SSW 12.7 mph 19.6 mph N/A   Clear
1:35 PM 62.6 °F - 30.2 °F 30% 29.91 in 10.0 mi SSW 18.4 mph 23.0 mph N/A   Clear
1:55 PM 62.6 °F - 30.2 °F 30% 29.91 in 10.0 mi SSW 13.8 mph 19.6 mph N/A   Clear
2:15 PM 62.6 °F - 30.2 °F 30% 29.90 in 10.0 mi SSW 13.8 mph 20.7 mph N/A   Clear
2:35 PM 64.4 °F - 28.4 °F 26% 29.90 in 10.0 mi SSW 16.1 mph 23.0 mph N/A   Clear
3:15 PM 64.4 °F - 30.2 °F 28% 29.90 in 10.0 mi SW 10.4 mph - N/A   Clear
3:35 PM 64.4 °F - 30.2 °F 28% 29.90 in 10.0 mi SW 13.8 mph 17.3 mph N/A   Clear
3:55 PM 64.4 °F - 28.4 °F 26% 29.89 in 10.0 mi SW 11.5 mph - N/A   Clear
4:35 PM 62.6 °F - 28.4 °F 27% 29.88 in 10.0 mi SW 12.7 mph 18.4 mph N/A   Clear
4:55 PM 60.8 °F - 28.4 °F 29% 29.88 in 10.0 mi SW 10.4 mph - N/A   Clear
5:15 PM 60.8 °F - 28.4 °F 29% 29.88 in 10.0 mi SSW 10.4 mph - N/A   Clear
5:35 PM 59.0 °F - 28.4 °F 31% 29.88 in 10.0 mi South 9.2 mph - N/A   Clear
5:55 PM 55.4 °F - 30.2 °F 38% 29.88 in 10.0 mi South 8.1 mph - N/A   Clear
6:15 PM 53.6 °F - 30.2 °F 41% 29.89 in 10.0 mi SSW 5.8 mph - N/A   Clear
6:35 PM 53.6 °F - 30.2 °F 41% 29.89 in 10.0 mi SSW 5.8 mph - N/A   Clear
6:55 PM 53.6 °F - 28.4 °F 38% 29.89 in 10.0 mi SSW 10.4 mph - N/A   Clear
7:15 PM 57.2 °F - 26.6 °F 31% 29.90 in 10.0 mi SW 15.0 mph - N/A   Clear
7:35 PM 57.2 °F - 24.8 °F 29% 29.90 in 10.0 mi SW 12.7 mph - N/A   Clear
7:55 PM 55.4 °F - 24.8 °F 31% 29.90 in 10.0 mi SW 12.7 mph - N/A   Clear
8:15 PM 55.4 °F - 26.6 °F 33% 29.91 in 10.0 mi SW 13.8 mph 19.6 mph N/A   Clear
8:35 PM 55.4 °F - 26.6 °F 33% 29.91 in 10.0 mi SSW 11.5 mph - N/A   Clear
8:55 PM 53.6 °F - 26.6 °F 35% 29.92 in 10.0 mi SSW 11.5 mph - N/A   Clear
9:15 PM 53.6 °F - 26.6 °F 35% 29.93 in 10.0 mi SSW 8.1 mph - N/A   Clear
9:35 PM 51.8 °F - 26.6 °F 38% 29.94 in 10.0 mi SSW 9.2 mph - N/A   Clear
9:55 PM 51.8 °F - 28.4 °F 41% 29.94 in 10.0 mi SSW 8.1 mph - N/A   Clear
10:15 PM 51.8 °F - 28.4 °F 41% 29.94 in 10.0 mi SSW 9.2 mph - N/A   Clear
10:55 PM 48.2 °F - 28.4 °F 46% 29.94 in 10.0 mi SSW 6.9 mph - N/A   Clear
11:15 PM 50.0 °F - 26.6 °F 40% 29.94 in 10.0 mi SW 9.2 mph - N/A   Clear
11:55 PM 48.2 °F - 26.6 °F 43% 29.94 in 10.0 mi SW 8.1 mph - N/A   Clear